Location: Caltech
(34.1382°N, 118.1253°W)
Time: 00:27:27
(UTC-07:00)

Cosmos 1606 - Visible Passes

Search period start: 26 May 2017 00:00
Search period end: 05 June 2017 00:00
Orbit: 507 x 531 km, 82.5° (Epoch: 25 May)

Date Brightness Start Highest point End Pass type
(mag) Time Alt. Az. Time Alt. Az. Time Alt. Az.
26 May 6.1 04:43:19 10° NE 04:45:04 13° ENE 04:46:48 10° E visible
27 May 6.3 04:30:21 10° ENE 04:31:06 10° ENE 04:31:51 10° E visible
31 May 2.8 05:07:33 10° N 05:11:30 90° W 05:15:24 10° S visible
01 Jun 3.0 04:53:40 10° N 04:57:35 75° E 05:01:29 10° S visible
02 Jun 3.3 04:39:47 10° N 04:43:40 61° E 04:47:32 10° SSE visible
03 Jun 3.7 04:25:56 10° N 04:29:45 49° E 04:33:33 10° SSE visible
04 Jun 4.1 04:12:06 10° N 04:15:50 40° E 04:19:31 10° SSE visible
